Temp
31 30 29 28 28 28 27 27 27 27 27 26 26 26 26 26 26 25 25 25 25 25 24 24 24 23 23 23 24 24 24 24 24 24 24 23 23 22 23 23 23 24 23 21 20 20 19 19 20 21 21 21 22 23 24 23 22 20 18 18 18 18 19 19 19 19 20 20 20 20 20 20 20 21 21 22 23 23 23 23 23 24 24 24 24
31 30 29 29 28 28 28 28 28 27 27 27 26 26 26 26 26 26 25 25 25 24 24 23 23 23 23 24 24 25 25 24 24 25 24 24 23 22 22 23 23 23 22 21 21 21 21 20 20 21 21 21 21 21 21 20 19 18 18 18 18 19 19 19 19 19 20 21 22 21 21 21 21 21 21 22 23 23 24 24 23 23 24 24 24
31 30 30 29 29 29 28 28 28 28 28 27 27 27 26 26 26 26 25 25 24 24 24 24 23 23 24 24 24 25 25 25 25 25 25 24 23 23 22 22 22 22 23 22 21 21 21 21 20 20 20 19 18 18 18 18 17 18 18 18 18 19 19 19 19 19 21 22 21 21 22 22 21 21 21 22 23 24 24 24 24 23 24 24 24
30 31 31 31 30 29 29 28 28 28 28 28 27 27 26 26 26 26 25 25 24 24 24 24 24 24 24 25 25 25 25 25 25 25 25 24 24 23 22 22 22 22 22 22 22 21 21 21 21 21 20 19 19 19 19 19 18 18 18 18 19 19 19 20 19 19 20 21 21 21 21 21 21 22 22 22 22 24 24 24 24 24 24 23 24
31 31 31 31 30 30 29 29 29 29 28 28 28 27 26 26 26 25 25 25 25 25 25 25 25 25 25 25 26 25 25 25 24 24 24 24 24 23 23 22 22 22 22 22 22 22 21 21 21 21 21 20 19 19 19 20 19 19 19 19 19 20 20 20 20 20 19 20 21 22 22 21 21 23 24 23 23 24 25 25 25 24 24 24 23
31 31 31 31 31 30 29 29 29 29 28 28 27 27 26 26 26 25 25 25 25 25 25 25 25 25 25 25 25 25 25 24 24 24 24 23 23 23 23 22 22 22 22 22 22 22 21 21 21 21 21 20 20 19 19 20 19 19 19 19 19 20 20 20 20 20 20 20 20 21 22 22 22 23 23 23 23 24 25 25 25 25 25 24 23
31 31 31 32 31 30 30 29 29 29 28 27 27 26 26 26 26 26 25 25 25 25 25 25 25 25 25 25 25 25 24 24 23 23 23 23 23 23 22 22 21 21 22 21 21 21 21 21 21 21 21 20 20 20 19 19 19 19 19 19 19 20 19 20 20 21 20 20 20 20 21 22 22 22 22 22 22 24 24 24 25 26 25 25 24
31 31 31 31 31 30 30 29 29 29 28 27 27 26 26 26 25 25 25 25 25 25 25 25 25 24 24 24 24 24 24 23 23 23 22 22 22 22 22 22 21 21 21 21 21 21 21 21 21 21 21 20 20 20 19 19 19 19 19 19 19 19 19 19 20 20 20 21 20 20 21 21 21 22 22 22 21 22 22 22 24 25 25 25 25
31 31 31 31 31 30 30 29 29 29 28 27 27 26 26 26 25 25 25 25 24 24 24 24 24 24 24 24 24 23 23 23 23 23 22 22 22 22 21 21 21 21 21 20 20 20 20 21 20 20 20 20 20 20 20 19 19 19 19 19 19 19 19 19 19 20 20 20 20 20 20 20 21 21 21 21 21 21 21 22 23 24 24 24 24
31 32 32 31 31 30 30 29 29 28 28 27 27 26 26 26 25 25 25 25 24 24 24 24 24 24 23 23 23 23 23 23 23 23 22 22 22 21 21 21 21 21 21 21 20 20 20 20 20 20 20 20 20 20 20 19 19 19 19 19 19 19 19 19 19 20 20 20 20 19 19 19 20 20 20 20 20 20 21 22 23 24 24 24 24
31 32 32 32 31 30 30 29 28 28 28 27 27 26 26 26 25 25 25 24 24 24 24 24 24 24 23 23 23 23 23 23 23 22 22 22 22 21 21 21 21 21 21 21 21 20 20 20 20 20 20 20 20 20 20 20 19 19 19 20 19 19 19 19 19 19 19 19 19 19 18 18 19 20 21 21 20 20 21 22 23 24 24 24 23
31 31 31 32 31 30 29 29 28 28 28 27 27 27 26 26 25 25 24 24 24 24 24 24 24 23 23 23 23 23 22 22 22 22 22 22 21 21 21 21 21 21 21 21 21 20 20 20 20 20 20 20 20 20 19 19 19 19 19 19 19 19 19 19 19 19 19 19 19 19 19 19 19 20 21 21 20 21 21 21 22 23 23 24 23
31 31 31 31 30 29 29 29 28 28 28 27 27 27 26 26 25 25 24 24 24 24 24 24 24 23 23 23 23 22 22 22 22 22 21 21 21 21 21 21 21 21 21 21 20 20 20 20 19 19 19 19 19 19 19 19 19 19 19 19 19 19 19 19 19 19 19 19 19 19 19 19 20 20 20 20 20 20 20 19 20 21 21 22 23
32 31 30 30 30 30 29 28 28 28 28 27 27 27 26 26 26 25 25 24 24 24 24 24 24 23 23 23 22 22 22 22 22 21 21 21 21 21 20 20 20 21 20 20 20 20 20 20 19 19 19 19 19 19 19 19 19 20 19 19 19 19 19 19 19 19 19 19 19 20 20 20 20 20 20 20 20 20 19 18 19 20 20 21 21
32 31 31 30 30 30 29 28 28 28 28 27 27 26 26 26 25 25 25 25 24 24 24 24 24 23 23 22 22 22 21 21 21 21 21 20 20 20 20 20 20 20 20 20 20 20 20 20 19 19 19 19 19 19 19 19 19 19 19 19 19 19 19 19 18 18 18 19 19 19 19 20 20 20 20 20 20 20 19 19 19 19 19 20 20
32 31 31 31 30 30 29 29 28 28 28 28 27 26 26 26 25 25 25 25 24 24 24 24 24 23 23 22 22 22 21 21 21 21 20 20 20 20 20 20 20 20 20 20 20 20 20 19 19 19 19 19 19 19 19 19 19 19 19 19 19 19 19 19 19 19 19 19 19 19 18 19 20 19 20 20 20 20 19 19 20 20 19 20 21
32 31 31 31 30 30 29 29 29 28 28 28 27 26 26 26 26 25 25 25 24 24 24 24 23 23 23 22 22 22 21 21 21 21 21 20 20 20 20 20 20 20 20 20 20 19 19 19 19 19 19 19 19 19 19 19 19 19 20 19 19 19 19 19 19 19 19 19 19 19 19 18 19 19 19 20 20 20 20 20 19 19 19 19 20
32 31 31 31 30 30 29 29 29 29 28 28 27 26 26 26 26 26 25 25 24 24 24 23 23 23 23 22 22 21 21 21 21 21 20 20 20 20 20 20 20 20 20 19 19 19 19 19 19 19 19 19 19 19 19 19 19 19 19 19 19 19 19 19 19 18 18 18 18 19 19 18 18 19 19 19 19 19 20 20 19 19 18 19 20
32 31 30 30 30 30 30 30 30 29 28 27 27 26 27 26 26 26 25 25 24 24 24 23 23 23 22 22 22 21 21 21 21 21 20 20 20 20 20 20 20 20 20 19 19 20 20 20 20 20 19 19 19 19 19 19 19 19 19 19 19 19 19 19 19 19 19 18 18 18 18 18 18 19 19 19 19 19 20 20 19 18 18 19 19
32 31 30 30 30 30 30 30 30 29 28 28 27 27 27 27 26 25 25 24 24 24 23 23 23 23 22 22 21 21 21 21 21 21 21 20 20 20 20 20 20 20 20 19 19 19 19 20 20 20 20 19 19 20 20 19 19 19 19 19 19 19 19 19 19 19 19 19 18 18 18 18 18 19 19 19 19 19 19 20 19 19 18 18 19
32 31 31 31 31 31 30 30 30 29 28 28 28 28 28 27 26 25 25 24 24 24 24 23 23 22 22 22 21 21 21 21 21 21 21 20 20 20 20 20 20 19 19 19 19 19 19 19 19 19 19 19 19 19 19 19 19 19 19 19 19 19 19 19 19 18 18 18 18 18 18 18 18 18 18 19 19 19 19 19 19 19 19 19 19
32 32 31 31 31 31 30 30 30 29 29 29 29 28 28 27 27 26 26 25 25 25 24 23 23 22 22 22 22 21 21 21 21 21 21 21 21 21 20 20 20 20 19 19 19 19 19 19 19 19 19 19 19 19 19 19 19 19 19 19 19 18 18 18 18 18 18 18 18 18 18 18 19 19 19 19 19 20 19 19 20 20 19 19 20
32 32 32 32 31 31 30 30 29 29 29 29 28 28 28 27 27 26 26 26 26 25 24 23 23 22 22 22 22 21 21 21 21 21 21 21 22 21 21 20 20 20 20 19 19 19 19 19 19 19 19 19 19 19 19 19 19 19 19 18 18 17 17 18 18 18 18 17 17 17 17 18 18 19 19 19 19 19 19 20 20 20 19 19 19
32 32 32 32 31 31 30 29 28 28 28 28 28 28 27 27 27 27 26 26 25 25 24 23 23 22 22 22 22 22 22 22 22 22 22 22 22 22 22 21 20 20 20 19 19 19 19 19 19 19 19 19 19 19 19 19 19 19 18 18 17 17 17 18 18 17 17 17 17 16 17 17 17 18 19 19 19 19 19 19 20 20 20 19 19
32 31 31 31 30 30 29 28 28 27 28 28 27 27 27 26 27 27 27 26 25 24 24 24 23 23 23 22 22 22 22 22 22 22 22 22 22 22 21 21 21 20 20 20 20 20 19 19 20 19 19 19 19 19 19 19 19 19 18 18 18 17 17 18 17 17 17 17 16 16 16 16 16 17 18 19 19 19 19 19 20 20 20 19 19
30 31 30 30 29 29 28 28 27 27 27 27 27 26 26 26 26 27 26 26 25 24 24 24 23 24 23 22 22 22 22 22 22 22 22 22 22 21 21 21 21 21 21 21 21 20 20 20 20 20 20 20 20 19 19 19 19 18 18 18 18 17 17 17 17 16 16 16 16 15 15 15 16 16 17 18 18 19 19 19 20 20 20 20 19
30 30 29 29 29 28 28 28 27 28 27 27 27 27 26 26 26 26 26 25 25 24 24 23 23 24 23 23 23 22 22 22 22 22 22 21 21 21 21 21 21 21 21 21 21 21 20 20 20 20 20 20 20 19 19 19 18 18 18 18 17 17 17 17 16 16 16 16 16 15 15 15 15 15 15 16 18 19 19 19 19 20 20 20 19
29 29 29 29 28 28 28 28 28 28 27 27 27 27 26 26 26 26 26 25 24 24 23 23 23 23 23 23 23 23 22 22 22 22 21 21 21 21 20 20 21 21 21 21 21 21 21 21 20 20 20 20 20 19 19 18 18 18 18 18 17 17 17 17 16 16 16 16 15 14 14 14 14 14 14 15 16 18 19 19 19 19 19 19 19
29 29 28 28 28 28 28 28 28 28 28 27 27 27 26 26 26 26 25 25 24 23 23 23 23 23 23 23 23 22 22 22 22 22 21 21 21 20 20 21 21 21 21 21 21 21 21 21 21 20 20 20 20 19 19 18 18 17 17 17 17 17 17 16 16 16 16 15 14 14 14 14 14 14 14 14 15 16 17 17 18 18 18 19 19
29 28 28 28 28 28 28 28 28 28 28 28 27 26 26 26 26 26 25 25 24 23 23 23 23 23 23 23 23 22 22 22 22 22 21 21 21 20 21 21 21 21 21 21 21 20 21 21 21 20 20 20 20 19 19 18 18 17 17 17 17 17 17 16 16 16 15 15 14 14 14 14 14 14 14 14 15 15 16 16 16 17 18 18 19
29 29 28 28 28 28 28 28 28 28 28 27 27 27 27 27 27 26 26 25 24 24 23 23 23 23 23 23 23 22 22 22 22 21 21 21 21 21 21 21 21 21 21 21 21 21 21 21 21 21 20 20 20 19 19 18 17 17 17 17 17 17 17 16 16 16 15 14 14 14 14 14 13 14 14 14 14 14 15 16 16 16 16 17 18
29 29 29 29 28 28 28 29 28 28 28 28 27 27 27 27 27 27 26 25 24 24 24 24 24 23 23 23 23 23 22 22 22 22 21 21 21 21 21 21 21 21 21 21 21 21 21 21 21 21 20 20 20 19 19 18 17 17 17 16 16 17 17 17 16 16 15 14 14 14 14 13 13 13 14 14 14 14 14 15 16 16 16 17 17
29 29 29 29 29 29 29 29 29 28 28 28 28 27 27 27 27 26 26 25 25 24 24 24 24 24 24 23 23 23 23 22 22 22 21 21 21 21 21 21 22 22 21 21 21 21 21 21 21 21 20 20 20 19 18 18 17 17 17 17 16 17 17 17 16 16 15 15 14 14 14 13 13 13 13 14 14 13 13 13 15 16 16 16 17
29 29 29 29 30 30 29 29 29 29 29 28 28 28 27 27 27 26 26 25 25 25 25 24 24 24 24 23 23 23 23 22 22 22 21 21 21 21 21 21 22 22 21 21 21 21 21 21 21 21 21 20 20 19 18 18 18 17 17 17 17 17 17 17 16 16 15 15 14 14 14 14 13 13 13 13 13 12 12 12 13 14 15 16 17
29 29 29 29 30 30 29 29 29 29 29 29 28 28 27 27 27 26 26 25 25 25 25 24 24 24 24 23 23 23 23 22 22 22 22 21 21 22 22 21 22 22 22 21 21 21 21 21 21 21 21 21 20 20 19 18 18 17 18 17 17 17 17 17 17 16 15 15 15 14 14 14 14 14 14 13 13 12 12 12 13 13 13 14 16
29 29 29 29 29 29 29 29 29 29 29 29 28 28 28 27 27 26 26 25 25 25 25 25 25 24 24 24 23 23 23 23 22 22 22 22 22 22 22 22 22 21 21 22 21 22 22 21 21 20 21 21 21 20 19 19 18 18 18 17 17 17 17 17 17 16 15 16 16 15 14 14 14 14 14 14 13 13 12 12 13 14 14 14 15
30 30 29 29 29 29 29 28 29 29 29 28 28 28 28 27 27 26 26 26 25 25 25 25 25 25 24 24 24 23 23 23 23 23 22 22 22 22 22 22 22 21 22 22 22 22 21 20 19 19 19 19 20 20 20 19 18 18 18 17 18 18 18 17 17 16 16 16 16 16 15 15 14 14 14 14 14 13 12 12 13 13 14 14 15
30 30 29 28 28 28 29 29 29 29 28 28 28 28 28 27 27 27 26 26 26 26 25 25 25 25 24 24 24 23 23 23 23 23 22 22 22 22 22 22 21 21 21 21 20 20 20 19 19 19 19 18 19 20 20 19 19 18 18 18 18 18 18 17 17 16 16 16 16 16 16 15 15 15 15 15 14 13 12 12 12 13 14 14 15
30 30 29 28 28 28 29 29 29 28 28 28 28 28 28 27 27 27 27 27 26 26 25 25 25 25 24 24 24 23 23 23 23 23 23 22 21 21 21 21 21 20 20 19 19 19 18 18 19 19 19 19 18 18 19 19 19 19 18 18 17 18 18 18 17 17 16 16 16 16 16 16 15 15 15 15 14 13 12 12 12 13 13 14 14
30 29 29 28 28 28 29 29 28 28 28 27 27 28 27 27 27 27 27 27 26 26 26 25 25 25 24 24 23 23 23 23 23 23 22 21 20 21 21 20 20 20 20 19 19 19 18 18 18 18 18 18 18 18 19 20 19 19 19 18 17 17 18 18 17 17 16 16 16 16 16 16 15 15 15 15 14 14 13 12 12 12 12 12 13
29 29 28 28 28 28 28 28 28 28 28 27 27 27 27 27 27 26 27 27 26 26 25 25 25 24 24 23 23 23 23 23 22 21 21 21 20 20 21 20 20 20 19 19 19 18 18 18 18 18 17 17 18 19 20 20 19 19 19 18 17 17 17 18 17 16 16 16 16 16 16 16 15 15 15 15 15 14 13 13 13 13 12 12 13
29 28 28 28 28 28 29 29 28 28 28 27 27 27 26 26 26 26 26 26 26 26 25 24 24 23 23 23 23 23 23 22 21 20 20 20 20 20 21 20 20 19 19 18 18 18 18 18 18 18 18 18 18 18 18 19 19 19 19 18 18 17 17 17 16 16 16 16 16 16 16 15 15 15 15 15 15 14 13 13 13 13 13 13 13
29 28 28 28 28 28 28 29 29 29 27 26 26 26 26 26 26 26 26 26 25 25 24 23 23 23 23 23 22 22 22 22 21 20 21 20 20 20 20 20 19 19 19 19 18 18 18 18 18 18 18 18 17 16 17 18 18 18 19 18 18 18 18 17 16 15 16 16 16 17 16 15 16 15 14 15 15 15 14 14 13 13 13 13 13
29 29 28 28 28 28 28 29 29 28 26 26 25 25 25 25 25 25 25 25 24 23 23 23 23 22 22 22 22 22 22 21 21 20 20 20 20 20 20 19 19 19 19 19 18 18 18 18 18 18 18 17 17 16 17 18 18 17 18 18 18 18 18 17 17 16 16 16 16 16 16 16 16 15 14 15 15 15 15 15 14 13 13 13 13
29 29 28 28 28 28 28 28 27 26 25 25 25 25 25 25 25 25 24 24 23 22 22 22 22 22 22 22 22 22 21 21 21 20 20 20 20 20 20 19 19 19 19 19 19 18 18 18 18 18 17 17 17 17 18 18 17 17 17 17 18 18 18 18 17 17 17 16 17 17 16 16 16 15 15 15 15 15 15 15 14 13 13 13 13
28 28 27 27 28 28 27 27 26 25 25 24 24 24 25 25 25 24 24 23 23 22 22 22 22 22 22 21 21 21 21 20 20 20 20 20 20 20 20 19 19 19 19 19 19 18 18 18 19 18 17 17 17 17 17 17 16 16 16 16 17 18 18 18 18 17 17 17 17 17 16 15 16 15 15 14 15 15 15 15 14 14 13 13 13
27 26 26 26 27 27 27 27 26 25 25 25 24 24 24 24 24 24 23 23 22 22 22 22 22 22 21 20 20 20 20 20 20 20 20 20 20 19 19 19 20 20 20 19 19 19 19 19 18 18 17 17 18 17 16 15 15 15 15 16 16 17 17 17 18 18 17 17 17 17 16 15 15 15 15 14 14 15 15 15 14 14 13 13 14
25 25 25 26 26 27 27 27 26 25 24 24 24 25 24 24 24 24 23 23 22 22 22 22 22 21 20 20 20 19 20 20 20 20 20 20 20 18 18 18 19 19 19 19 19 19 19 18 18 18 17 18 18 17 15 13 13 14 15 16 15 15 16 17 17 17 17 17 17 17 16 16 16 15 15 15 14 14 14 14 14 14 14 14 14
24 24 24 25 25 25 25 25 24 24 23 23 23 24 24 24 23 23 23 22 22 21 21 21 21 21 20 20 20 20 20 20 19 19 19 19 18 18 17 17 17 17 17 17 17 18 18 17 18 17 16 16 16 14 12 12 13 14 14 15 14 15 16 17 17 17 17 17 17 18 17 16 16 16 15 15 15 14 14 14 14 14 14 14 14
24 24 24 24 23 23 24 23 23 22 23 22 22 22 23 23 23 22 22 21 21 20 20 21 21 21 20 20 20 20 20 19 19 19 19 18 17 16 16 16 15 16 16 15 15 16 15 15 16 15 13 12 12 11 11 12 13 13 13 13 13 14 15 16 16 16 16 17 17 17 16 15 15 15 15 14 14 13 13 13 13 13 13 13 13
25 24 24 23 23 23 23 23 22 22 22 22 22 22 22 22 22 21 21 21 20 20 20 21 21 21 20 20 20 20 19 19 18 18 18 18 17 15 14 14 14 14 14 13 13 13 13 13 13 13 12 11 11 11 11 11 12 13 13 12 13 13 14 15 15 16 16 16 16 16 15 14 14 14 13 13 13 13 12 11 11 12 11 11 12
Height
813 817 820 822 824 825 827 828 829 830 832 833 834 835 836 837 838 839 840 841 842 843 844 844 842 841 842 842 842 841 841 841 841 841 841 842 842 841 839 838 836 836 836 836 836 836 835 835 835 835 835 835 835 834 834 833 832 832 831 832 833 833 832 831 833 834 833 833 832 831 830 830 831 832 832 832 833 834 834 834 833 832 832 832 833
812 816 818 820 822 823 825 826 828 829 830 832 833 834 835 835 837 837 839 840 841 841 842 843 842 841 841 841 840 840 840 839 840 840 840 840 840 839 837 837 836 835 835 835 834 834 833 833 833 833 833 832 832 831 831 830 830 830 830 830 831 831 830 830 831 831 830 829 828 827 827 826 827 827 828 828 828 829 830 830 829 829 829 829 830
812 814 815 818 820 821 824 825 826 828 829 831 832 833 834 835 836 836 837 838 839 840 841 841 841 841 840 839 839 839 838 839 839 839 839 839 838 838 837 836 835 834 833 833 832 832 832 831 831 831 831 831 830 829 828 828 828 829 829 829 829 829 828 828 829 828 827 826 826 826 825 824 824 823 823 823 824 824 825 825 825 825 825 826 827
814 813 812 815 818 820 822 824 825 827 828 829 830 832 833 834 835 836 837 838 838 839 839 840 841 840 839 838 838 838 838 838 838 838 838 838 837 837 836 835 834 833 832 831 831 830 830 830 829 829 829 829 829 828 827 827 827 827 828 828 827 826 826 825 826 826 825 824 824 823 823 825 824 820 818 819 820 820 820 821 821 821 822 823 823
812 812 811 813 816 818 820 823 824 825 827 828 829 831 832 833 834 835 836 837 838 838 838 839 839 839 838 837 837 837 837 837 837 837 837 837 837 836 836 835 834 833 832 831 830 829 828 828 827 827 827 827 826 825 825 825 825 825 826 825 825 824 822 822 821 821 822 822 821 819 822 825 822 817 816 815 815 815 815 816 817 817 817 818 819
809 810 811 812 815 817 820 821 823 824 826 828 829 831 832 833 834 835 836 837 837 838 838 838 838 838 838 837 837 836 836 836 836 836 836 836 836 835 835 834 833 832 831 830 829 828 827 826 825 825 825 824 823 823 823 823 823 823 824 824 822 821 820 819 817 817 818 818 817 816 817 819 817 815 817 816 813 811 811 812 812 813 813 814 815
808 808 808 811 813 816 818 820 822 824 825 827 829 831 832 833 834 835 835 836 837 837 837 838 838 838 838 837 837 837 836 836 836 836 835 835 835 834 834 833 832 831 830 829 827 826 825 824 824 823 823 822 822 821 821 822 822 822 822 822 820 820 819 817 815 816 816 815 815 815 814 814 815 814 815 816 815 812 810 809 809 808 810 810 810
806 808 808 809 812 814 816 819 821 822 824 827 829 830 831 832 833 834 835 835 836 836 837 837 837 837 837 837 837 836 836 836 836 835 835 834 834 834 833 832 832 830 829 828 826 825 824 823 822 822 821 821 821 820 820 820 820 820 820 820 819 818 818 816 814 814 814 813 813 814 813 813 814 813 812 814 816 815 811 809 807 806 807 807 807
802 805 806 808 810 812 815 817 820 822 824 826 827 829 830 831 832 833 834 835 835 836 836 836 836 836 836 836 836 836 835 835 835 834 834 834 833 833 832 832 831 830 829 828 826 825 824 822 822 821 820 819 819 818 818 819 820 820 819 819 818 816 815 815 813 812 812 812 812 812 813 814 813 812 812 812 814 815 813 808 806 804 803 804 804
799 801 803 806 808 811 813 816 819 821 823 825 827 828 830 831 832 833 833 834 834 835 835 835 835 835 835 835 835 835 835 834 834 834 833 833 833 832 832 831 831 830 829 828 827 825 824 823 821 821 820 818 818 817 817 818 818 818 817 816 816 814 813 812 811 810 810 810 810 810 812 815 814 811 810 811 811 812 811 805 802 802 800 799 800
796 798 800 803 806 809 812 815 818 820 822 824 826 827 829 830 831 832 833 833 834 834 834 835 834 834 834 834 834 834 834 834 834 833 833 832 832 832 831 831 830 829 828 827 827 825 824 823 822 821 820 818 817 817 816 816 816 816 815 814 813 813 812 811 809 808 808 808 808 808 809 811 811 808 806 808 808 808 808 803 799 799 797 795 795
794 796 798 800 804 808 811 814 816 819 821 822 825 826 828 829 831 832 832 833 833 833 834 834 834 834 834 834 834 834 834 833 833 833 832 832 832 831 831 830 829 828 827 826 826 825 824 823 822 821 820 818 817 816 816 815 814 814 813 812 812 811 811 810 808 806 805 805 805 805 805 805 806 804 804 805 805 804 805 802 798 798 796 793 792
790 794 796 798 802 806 808 812 814 816 819 821 823 825 827 829 830 831 831 832 832 833 833 833 833 833 833 833 833 833 833 833 833 832 832 832 831 831 830 829 828 827 826 825 825 824 823 822 821 820 819 818 817 816 815 814 813 812 811 811 810 810 809 808 806 805 804 803 802 801 801 801 801 800 800 802 802 801 802 802 799 798 797 794 792
787 790 793 796 799 802 806 809 812 814 817 820 822 824 826 828 829 830 830 831 831 832 832 832 832 833 832 832 832 832 832 832 832 832 832 832 831 830 829 828 827 826 825 825 824 823 822 821 820 819 819 817 816 815 814 813 811 810 809 809 808 808 807 805 805 803 802 801 800 799 798 797 797 796 797 798 798 797 798 799 797 797 796 794 793
784 787 790 792 796 799 803 806 810 812 815 818 820 822 825 826 827 828 829 829 830 831 831 831 831 831 831 832 832 832 832 832 832 832 832 831 830 829 829 827 826 825 824 824 823 822 821 820 820 819 817 816 815 814 812 811 810 809 808 807 806 806 805 804 803 801 799 798 798 797 796 795 794 793 793 793 793 793 794 796 796 795 794 792 791
781 784 786 789 793 797 800 804 807 810 813 816 818 821 823 825 826 827 828 828 829 829 829 830 830 830 830 831 831 831 831 831 831 831 831 830 830 829 828 826 825 824 824 823 822 821 820 820 819 818 816 815 814 812 811 810 809 807 806 805 804 804 803 802 802 800 797 796 795 794 794 792 790 790 790 789 789 789 790 791 791 791 791 789 787
778 781 783 787 791 795 797 801 804 808 811 814 816 819 821 823 824 825 826 827 828 828 828 828 828 829 829 829 830 830 830 830 830 830 830 829 828 827 826 825 824 824 823 822 821 820 820 818 818 816 815 814 813 811 810 809 808 806 805 804 803 802 802 800 799 798 796 794 792 791 790 788 787 787 786 784 784 785 785 786 785 785 787 787 784
776 778 781 784 788 792 795 798 802 805 809 812 814 817 819 821 823 824 825 825 826 827 826 827 827 827 828 828 828 828 828 829 829 829 829 828 827 826 825 824 823 823 822 821 820 819 818 817 816 815 814 813 811 810 809 807 806 805 803 803 802 801 800 799 797 796 794 792 790 788 786 784 783 783 782 781 780 780 780 780 780 781 783 783 781
774 776 780 782 785 790 793 796 800 803 807 810 813 816 818 820 821 822 824 824 825 825 825 826 826 826 826 826 826 827 827 827 827 827 827 826 826 825 824 823 822 821 820 819 819 818 817 816 815 814 813 812 810 809 808 806 805 803 802 801 800 800 799 797 795 793 791 790 788 786 784 782 780 778 777 776 775 775 775 774 774 775 777 778 777
771 774 777 779 782 787 791 794 797 801 806 808 811 814 815 817 819 820 822 823 823 824 824 824 824 824 824 824 825 825 825 826 826 826 825 825 824 823 822 822 820 820 819 818 817 816 816 815 814 813 812 810 809 808 806 805 804 802 801 800 799 797 796 795 793 791 789 787 785 782 780 779 777 774 772 771 770 769 769 769 769 770 771 772 771
768 770 773 776 780 784 789 793 796 799 804 806 808 811 812 815 817 819 820 821 822 822 823 823 823 823 823 823 823 823 824 824 824 824 824 823 823 822 821 820 819 818 818 817 816 815 815 814 813 812 810 809 808 806 805 803 802 801 800 799 798 796 795 792 791 789 786 784 781 778 776 774 773 770 768 766 765 764 764 763 763 764 765 766 764
764 766 769 772 777 782 787 791 794 797 801 803 806 808 810 813 815 817 818 819 820 821 821 822 822 822 822 821 822 822 822 822 822 822 822 821 821 820 820 819 818 817 816 816 815 814 813 813 811 811 809 808 806 805 804 802 801 800 799 798 797 795 793 791 789 787 784 781 777 774 771 768 767 765 762 762 760 759 759 758 758 758 759 760 759
760 762 765 769 774 779 784 788 792 795 798 801 804 806 808 811 813 815 816 817 818 819 820 820 820 820 820 820 821 820 821 821 821 821 820 820 819 818 818 818 817 816 815 814 813 812 812 811 810 809 808 807 805 803 802 801 800 799 798 797 796 793 791 789 786 784 781 778 774 770 767 764 762 759 757 756 755 754 753 753 753 753 753 755 756
757 760 763 767 772 777 782 786 789 793 796 799 802 804 807 809 811 813 814 815 816 817 818 819 819 819 819 819 819 819 819 819 819 819 818 818 817 816 816 816 815 814 813 813 812 811 810 809 808 807 806 805 804 802 801 800 799 798 797 795 793 791 789 786 784 781 778 775 772 768 765 762 758 755 752 750 749 749 749 748 748 748 748 750 751
757 760 762 765 769 774 779 783 787 790 794 797 800 803 805 807 810 810 811 813 814 816 817 817 817 817 818 818 818 818 818 818 817 817 817 816 815 815 815 814 813 812 811 811 810 809 808 806 805 805 804 803 802 801 799 798 797 796 795 793 792 790 787 785 782 779 776 773 770 766 763 760 756 752 748 746 744 743 744 744 743 743 743 744 744
757 759 761 763 766 770 774 779 784 788 791 795 797 800 803 805 808 809 810 811 813 814 815 815 816 816 816 816 816 816 816 816 816 816 815 815 814 814 813 812 811 810 809 808 807 806 805 804 803 802 802 801 800 799 798 797 796 795 793 792 790 787 785 783 780 777 774 771 768 764 761 757 754 749 745 741 739 738 738 738 738 738 739 739 739
756 758 760 763 765 767 770 776 781 785 789 792 795 798 801 803 806 807 808 809 811 813 813 814 814 814 814 815 815 815 815 815 815 814 814 813 813 812 812 811 810 809 807 806 805 804 803 802 801 800 799 798 797 796 795 795 794 793 791 790 788 785 783 781 778 776 773 770 766 763 759 755 752 748 742 737 734 732 733 733 733 734 734 735 735
756 758 760 761 764 766 768 774 778 782 786 789 792 795 798 801 803 805 806 807 809 811 811 812 812 812 813 813 813 813 813 813 813 812 812 811 811 811 810 809 808 806 805 804 803 801 800 799 798 797 796 796 795 794 793 792 792 791 790 788 786 784 781 779 777 775 772 768 765 761 757 754 750 745 740 735 731 729 728 728 729 730 730 730 731
755 756 757 759 762 763 766 771 775 780 784 787 790 793 796 799 801 802 804 805 807 809 809 810 810 810 811 811 811 812 811 811 811 810 810 809 809 809 808 807 806 804 803 802 800 799 798 796 796 795 794 793 793 792 791 790 790 789 788 787 785 782 780 777 775 773 770 767 763 759 755 752 748 743 738 732 729 727 726 726 725 726 726 725 726
752 753 755 756 758 760 764 768 773 777 781 784 788 791 794 797 798 800 802 803 805 806 807 808 808 808 809 809 809 810 809 809 809 809 808 807 807 807 805 804 803 802 801 800 799 797 796 794 793 792 791 790 790 790 789 788 787 787 786 785 783 781 778 776 774 771 768 765 761 757 753 750 746 741 735 730 727 726 724 723 722 721 722 722 721
748 750 752 753 755 758 761 765 770 774 778 782 786 789 792 794 796 798 800 801 803 804 804 805 805 806 807 807 807 807 807 807 807 807 806 805 805 804 803 802 801 799 799 798 797 795 794 792 791 790 789 788 788 787 786 786 786 785 784 783 781 779 776 775 773 770 767 763 759 756 752 747 743 739 734 730 727 724 722 720 718 716 717 717 716
745 747 748 750 752 755 757 761 767 772 776 780 784 787 790 792 793 795 797 799 801 801 802 802 803 804 804 804 805 805 805 805 804 804 803 803 802 801 800 800 798 797 796 795 794 793 792 790 789 788 787 786 785 785 784 784 784 783 782 780 779 777 775 773 772 769 766 763 759 755 751 747 744 739 735 731 726 722 718 715 713 711 711 712 712
742 743 745 747 748 750 754 759 764 769 774 778 782 785 787 789 791 793 795 797 797 798 799 800 800 801 801 802 803 802 802 802 801 801 801 800 800 799 798 797 795 794 794 793 792 791 789 788 787 786 785 784 783 783 782 782 782 781 780 778 776 775 773 772 770 767 765 762 758 755 751 747 744 740 736 732 728 722 717 712 708 706 705 705 706
739 740 742 743 744 747 752 757 762 767 772 777 780 782 784 786 789 791 793 794 794 795 796 797 798 799 799 799 800 799 799 799 799 799 798 797 797 796 795 794 793 792 791 791 790 788 787 786 785 784 783 782 781 781 780 780 779 778 777 775 774 773 771 769 768 766 763 760 757 754 750 746 742 739 736 732 728 723 718 711 707 703 701 699 700
737 738 740 741 743 746 751 756 761 766 771 775 777 779 782 784 786 788 790 791 792 792 793 794 795 796 796 797 797 796 796 796 796 796 796 795 795 794 793 792 791 790 789 788 787 786 784 783 782 781 780 779 778 778 777 777 776 775 774 773 772 770 768 767 766 764 761 758 755 752 748 744 741 737 734 731 727 723 718 712 706 702 698 695 693
734 736 738 740 742 746 750 755 760 765 769 772 775 777 779 781 783 785 787 788 789 790 790 791 792 793 794 794 794 794 794 793 794 794 793 793 792 791 791 790 789 788 787 786 785 783 782 781 781 780 779 777 776 775 774 774 773 772 772 771 770 768 766 764 763 761 759 756 753 750 746 743 739 736 732 729 726 722 716 711 705 699 695 691 687
731 734 737 739 743 746 749 754 759 764 767 770 772 775 776 778 781 782 783 785 786 786 787 788 789 790 791 791 791 791 791 791 791 790 790 790 790 789 789 788 787 787 785 784 783 782 781 781 780 780 779 777 775 772 771 771 771 770 769 769 767 766 764 762 760 759 756 754 751 747 744 741 738 735 732 728 724 720 715 710 704 697 692 687 682
730 733 736 740 744 746 749 754 758 762 765 767 770 772 774 776 778 779 780 782 783 783 785 786 787 787 788 788 788 788 788 788 788 788 787 788 788 788 787 787 787 786 785 784 783 782 782 781 780 779 778 776 774 772 769 768 768 768 767 766 765 763 761 760 758 756 754 751 748 745 742 740 737 734 731 727 724 719 714 709 703 696 690 683 678
731 733 736 739 743 746 750 754 757 760 763 765 767 768 771 773 774 775 777 778 779 780 781 782 784 784 785 785 786 786 786 786 785 785 785 785 786 786 786 786 785 785 784 784 783 782 781 781 780 779 777 775 773 771 768 766 765 765 765 764 763 761 759 757 755 753 751 748 746 743 740 739 736 733 730 726 722 719 714 708 701 695 689 681 675
731 733 736 739 743 747 750 753 756 758 760 761 763 765 767 769 770 772 773 774 776 777 778 779 781 781 782 783 783 784 784 784 783 783 782 783 783 784 784 784 783 783 782 781 780 779 778 778 777 777 776 774 772 769 766 764 763 763 763 762 761 760 757 755 753 751 749 746 744 741 738 737 735 732 728 724 721 718 713 706 700 694 687 678 671
732 734 737 740 743 746 749 752 754 755 757 759 761 762 764 766 768 769 769 771 773 774 776 777 778 779 780 781 781 781 781 781 782 781 780 780 781 781 782 781 781 780 779 779 778 777 776 774 774 774 774 773 770 767 764 762 762 761 761 760 759 758 756 754 751 750 748 745 742 740 737 736 734 731 728 724 720 717 712 706 699 693 685 674 665
733 735 738 740 743 745 748 750 752 753 755 757 758 760 762 764 765 766 767 769 770 772 773 775 776 777 778 778 779 779 779 779 780 779 779 778 778 778 779 778 779 778 777 776 776 775 774 773 772 771 770 768 767 765 763 761 760 759 759 758 757 756 755 753 750 748 746 743 741 738 736 735 733 730 727 724 720 716 710 704 699 691 681 671 660
733 736 738 740 743 745 747 748 750 752 754 755 757 758 759 761 763 763 765 767 768 770 771 772 773 775 775 776 777 776 777 778 778 777 776 776 776 776 776 776 776 776 775 774 773 772 772 771 770 769 767 766 766 766 763 759 758 757 757 756 756 755 753 752 749 747 745 742 740 737 735 734 732 730 727 725 721 715 709 703 697 690 681 672 662
734 736 738 741 743 744 746 748 749 751 753 754 755 757 758 759 761 762 763 764 765 767 768 769 771 773 773 774 775 775 775 776 776 775 774 774 774 775 774 774 774 774 774 773 771 771 770 769 768 767 765 764 765 764 761 757 756 756 755 755 754 753 752 750 748 746 743 741 739 737 735 733 732 729 727 724 721 716 710 704 698 691 684 677 668
734 736 739 741 742 743 746 747 748 750 752 753 754 755 756 756 758 760 761 762 762 764 765 768 770 771 771 773 774 774 775 775 774 774 773 772 773 773 773 773 773 772 771 771 770 769 769 768 767 765 763 762 762 762 759 756 755 755 754 753 752 751 750 749 747 744 742 740 739 736 734 733 731 729 726 724 721 717 712 706 701 695 689 682 675
735 737 739 741 742 743 745 747 748 750 751 751 753 754 754 755 756 757 758 759 760 762 764 767 769 769 770 772 773 773 774 774 774 773 772 771 771 771 771 771 771 770 769 768 768 767 767 766 765 763 762 761 761 761 759 757 756 754 753 752 750 749 749 748 745 743 741 739 738 736 734 732 730 728 726 724 721 718 714 709 704 698 693 688 683
736 738 740 741 742 744 745 746 748 749 750 751 753 753 754 755 756 756 757 757 759 761 763 766 767 768 770 771 772 772 773 773 773 772 770 770 769 770 770 770 769 768 767 766 766 765 764 764 763 762 762 761 760 759 758 757 755 753 752 750 749 748 748 746 744 742 740 738 737 735 733 732 730 728 726 724 722 719 715 711 707 701 696 692 688
737 739 741 742 743 745 745 746 748 749 751 752 752 753 754 754 755 756 756 757 759 761 763 765 766 768 769 770 771 771 771 771 771 770 769 768 768 768 769 769 768 766 765 765 764 764 763 763 762 761 761 760 759 758 758 756 754 752 750 749 748 748 747 745 744 741 739 737 736 734 733 731 729 727 726 724 722 719 716 713 709 705 700 696 692
739 741 742 743 744 745 746 747 748 750 751 752 752 753 753 754 755 756 756 758 760 761 763 765 766 767 769 769 769 770 769 769 769 768 768 767 767 767 767 767 767 765 764 764 764 763 763 763 762 761 761 760 759 759 758 756 754 751 750 748 747 746 745 744 743 741 738 736 735 733 732 731 729 728 726 724 723 721 718 715 711 708 705 701 697
740 741 742 743 744 745 746 748 749 750 751 752 753 753 754 754 755 756 757 758 759 761 763 764 765 766 766 766 767 767 767 768 767 766 766 766 766 766 766 765 765 764 763 763 763 763 763 762 762 762 761 761 761 759 758 755 753 751 750 748 747 746 745 743 742 740 738 736 734 733 732 732 731 730 728 726 725 723 720 717 714 711 708 706 703
739 740 741 743 745 746 747 748 749 750 751 752 752 753 753 754 755 756 757 758 758 760 761 762 763 764 764 764 765 765 765 766 765 765 765 765 765 765 765 764 764 764 763 763 763 762 762 762 762 762 762 761 761 759 757 755 753 751 750 749 747 746 744 743 742 740 739 737 735 734 734 734 733 732 730 729 727 725 723 721 718 714 712 709 707
Wind_Speed
9 9 9 9 9 9 9 8 7 7 7 7 7 7 7 7 7 7 6 6 6 4 4 6 10 11 10 10 9 7 7 8 8 7 7 4 4 5 7 9 11 13 10 6 7 9 10 11 13 16 16 17 20 22 24 25 25 22 19 22 25 25 26 25 20 17 17 17 17 19 19 18 20 22 23 23 24 22 19 19 17 16 16 15 15
8 8 9 9 9 10 10 9 8 8 8 8 7 7 6 6 6 6 5 5 5 4 4 6 9 9 7 7 7 7 7 7 9 8 8 8 6 4 5 8 10 12 10 7 8 9 9 10 11 14 15 14 15 18 20 20 20 20 16 16 18 21 23 22 19 16 15 15 14 13 15 16 17 22 25 25 24 24 22 21 19 18 18 17 15
7 7 8 9 9 10 9 9 9 8 8 8 7 6 5 5 5 4 4 4 3 4 5 5 6 5 4 5 5 6 7 6 9 10 9 10 9 7 7 9 10 12 12 11 10 10 11 11 12 13 14 13 13 14 15 16 17 18 18 18 17 19 20 19 18 17 15 13 11 9 8 9 11 16 22 26 25 24 24 23 21 20 19 18 17
7 7 8 9 9 10 10 9 9 8 7 7 6 5 4 4 4 3 2 1 1 1 1 1 3 2 4 6 5 7 8 7 8 9 8 10 10 8 9 10 11 11 12 13 12 12 12 14 14 14 14 15 16 16 16 17 17 17 18 20 20 19 19 17 16 18 17 12 8 6 6 5 6 8 14 22 25 24 25 25 23 21 21 20 19
8 8 8 9 10 10 10 9 9 9 7 6 5 4 4 4 4 4 2 2 2 1 3 3 4 4 5 7 7 7 8 8 9 9 9 9 9 9 10 10 10 10 11 12 13 13 14 16 16 15 15 16 16 16 17 18 16 16 16 19 21 19 18 17 14 16 18 16 12 7 5 4 5 7 9 13 19 22 23 24 23 22 22 20 20
8 8 9 10 11 10 10 10 9 9 8 6 5 5 5 6 6 5 4 3 3 3 4 4 5 6 7 7 7 7 7 7 8 9 9 8 9 9 9 10 9 10 10 11 12 12 14 15 15 15 16 16 16 15 16 16 15 14 14 16 19 19 19 18 17 17 18 19 20 16 13 10 7 5 6 6 12 18 19 19 20 21 22 21 20
9 9 10 11 12 12 11 11 10 10 9 7 6 7 7 7 7 6 5 5 4 4 4 4 4 4 5 5 4 5 6 5 6 7 7 7 8 8 9 9 9 10 10 10 11 11 12 13 13 14 15 15 15 13 13 13 12 11 12 13 16 18 18 19 19 18 17 19 22 22 22 21 16 11 7 5 7 11 14 17 19 19 19 21 21
10 10 11 12 13 13 12 12 11 10 10 9 8 8 8 9 8 7 6 5 5 3 3 3 2 2 3 2 2 3 4 5 5 5 6 7 7 8 9 9 9 10 10 10 11 10 11 12 12 12 13 14 13 12 13 12 11 11 11 12 15 17 18 19 20 18 18 19 19 21 23 24 24 21 15 11 7 7 9 14 18 17 17 19 21
12 11 12 13 14 13 13 13 12 11 11 10 10 10 10 10 9 8 6 5 4 3 3 3 3 3 3 3 3 3 4 5 6 6 5 6 7 7 8 8 9 9 9 10 10 10 10 10 10 10 11 12 12 12 13 12 12 12 11 13 16 18 18 19 22 21 21 20 17 18 20 21 22 21 18 14 11 9 9 11 15 17 17 21 22
12 12 13 15 15 14 14 14 13 12 11 11 11 11 11 10 8 7 5 4 3 3 3 4 3 3 3 3 4 4 5 6 6 6 5 6 7 7 7 7 7 8 8 8 9 10 9 8 9 9 10 11 11 11 13 13 13 13 14 17 18 20 20 20 23 23 22 22 20 19 20 20 19 17 15 15 14 12 12 13 16 16 15 18 22
12 13 14 16 16 15 15 15 14 13 13 13 12 11 11 9 8 7 6 5 4 4 3 2 3 3 3 4 5 5 6 6 6 6 6 7 7 7 7 7 7 7 7 7 8 9 8 8 8 8 9 10 10 10 14 16 15 14 16 18 18 19 21 20 22 22 21 24 23 21 22 23 22 17 15 15 13 11 12 13 17 21 19 18 20
13 12 13 15 15 15 16 16 15 14 14 14 12 12 11 9 9 8 7 6 5 3 2 1 1 2 3 4 5 5 5 6 6 6 6 7 7 8 8 7 7 8 7 7 8 8 8 8 8 8 7 9 10 11 14 17 16 15 15 16 17 17 19 19 20 21 21 23 22 23 26 26 26 24 21 19 17 17 15 10 15 20 17 19 19
14 12 13 14 14 16 18 17 16 16 15 15 13 12 11 10 9 8 8 6 5 3 2 0 1 1 2 4 4 4 5 5 5 5 5 6 7 7 8 8 8 8 8 8 8 8 8 7 8 8 7 8 10 11 13 14 15 16 15 15 16 16 18 20 21 22 21 21 21 23 24 24 25 25 23 23 22 22 17 11 16 19 14 16 17
13 13 13 13 15 18 19 17 16 16 16 16 14 13 11 10 10 8 7 6 4 3 1 1 1 1 2 3 3 3 4 4 4 4 5 5 6 7 7 7 7 7 7 8 8 8 7 7 8 8 8 8 9 10 11 12 13 15 15 15 15 16 18 20 22 23 22 22 21 20 22 22 23 24 25 24 21 20 18 15 15 16 14 14 14
13 13 14 15 17 19 19 18 17 17 17 16 15 14 12 11 10 8 7 6 4 3 2 1 1 1 2 2 2 2 3 3 3 3 4 5 6 6 6 6 7 7 7 7 7 7 7 7 7 8 8 9 9 10 11 11 11 12 13 14 14 14 15 18 20 22 22 24 23 21 23 22 21 24 27 25 24 22 23 24 19 12 11 11 10
14 14 14 16 18 19 19 18 18 18 18 17 15 15 13 11 10 9 7 6 5 5 3 2 1 1 1 2 2 2 2 2 3 3 4 5 6 7 7 6 6 6 7 7 7 7 7 8 8 8 9 9 10 10 10 11 11 11 11 11 13 13 13 16 18 19 20 22 25 24 23 24 24 24 25 28 30 26 24 28 26 16 10 9 9
15 14 14 16 18 19 19 19 19 19 19 18 16 15 14 12 11 10 8 7 6 5 4 2 2 2 2 2 2 2 2 2 3 4 5 6 6 7 7 6 6 6 7 7 8 8 8 8 9 9 9 10 10 11 11 11 10 11 11 11 12 12 14 17 18 18 19 19 23 26 25 28 31 28 27 30 33 31 29 31 29 25 20 13 9
15 15 15 16 18 19 19 20 20 21 20 18 17 16 14 12 11 9 8 7 6 5 4 3 2 2 2 2 2 2 3 3 3 4 5 6 6 7 7 6 6 7 7 8 9 9 9 9 10 10 10 11 12 12 12 12 12 12 12 12 13 12 13 17 18 19 21 20 21 26 28 29 31 30 30 31 32 32 33 34 32 32 30 21 12
15 15 14 15 17 19 20 20 21 21 20 18 18 16 14 12 10 9 7 6 6 5 4 3 3 3 3 3 3 3 3 4 4 4 5 6 6 7 7 7 7 7 8 8 9 9 10 10 11 12 12 12 13 13 13 13 13 13 13 13 14 14 13 16 18 20 21 21 21 25 28 28 29 31 31 31 31 31 31 32 32 33 35 33 26
14 15 14 15 18 21 21 21 22 21 20 18 18 16 14 12 11 9 8 7 6 5 4 4 4 4 4 3 4 4 4 4 4 5 5 6 6 7 7 7 7 7 8 8 9 10 11 12 13 13 13 14 14 14 14 13 12 12 12 14 15 16 16 16 18 21 21 22 24 26 28 29 30 31 31 31 32 32 32 33 32 30 32 35 33
15 15 15 16 19 22 22 21 21 21 20 19 17 15 13 12 11 10 9 8 7 7 6 5 5 5 5 5 5 5 5 5 5 6 6 6 6 6 7 7 8 8 8 9 10 11 12 13 14 14 15 16 15 15 14 14 12 12 13 14 15 17 19 19 19 21 23 25 27 28 29 30 31 30 30 32 31 29 30 32 32 32 31 30 30
16 16 16 16 19 22 22 22 21 20 20 19 16 14 13 12 11 10 9 8 8 7 7 6 6 6 6 6 6 6 6 6 7 7 7 7 7 7 8 8 9 9 9 10 10 11 12 13 15 15 15 15 16 14 13 13 13 13 15 15 15 18 22 22 23 23 24 27 28 29 31 32 31 31 31 31 30 29 27 28 30 31 32 31 28
17 17 16 16 20 22 21 21 21 20 20 18 16 14 13 12 11 10 9 9 8 7 8 7 7 7 7 7 7 6 7 7 7 8 7 7 8 8 8 9 10 10 10 11 11 12 13 13 14 15 13 13 14 14 13 13 12 13 14 15 17 19 22 24 25 25 26 28 28 28 30 32 31 30 30 29 29 29 27 27 29 29 31 33 31
17 16 14 16 20 21 20 20 20 19 18 18 16 15 14 12 12 11 10 9 8 8 8 8 8 8 8 8 8 7 8 8 8 8 7 8 9 9 9 10 11 12 12 12 13 13 14 14 13 13 12 12 13 13 14 13 12 12 13 14 16 18 21 24 26 26 28 28 28 28 30 32 32 31 30 28 25 26 27 27 28 29 30 33 31
16 16 15 17 18 19 19 19 18 18 18 18 17 16 15 13 13 12 10 9 9 9 9 8 8 9 9 9 9 8 8 8 8 8 8 8 9 10 11 11 11 12 13 14 14 15 15 14 13 12 12 12 12 12 12 12 13 12 12 13 15 16 20 24 25 26 29 29 29 29 29 30 33 33 33 29 24 24 28 28 28 29 29 30 28
16 16 16 17 16 17 19 19 18 19 18 17 16 16 15 14 13 12 10 9 9 9 9 9 9 9 9 9 9 9 8 8 8 8 8 9 10 11 11 12 12 13 14 15 15 16 15 14 14 13 13 13 12 11 11 11 11 12 12 13 14 16 21 24 24 26 28 29 29 29 29 29 30 33 36 34 29 25 25 27 29 31 30 29 29
14 14 15 15 15 16 19 20 19 20 19 17 17 16 15 14 14 13 11 10 10 10 10 10 9 9 9 9 9 9 8 8 8 8 9 10 11 12 12 13 14 14 15 16 16 17 17 16 15 14 14 13 12 11 11 10 10 10 12 13 14 16 20 23 23 25 26 26 27 28 29 28 28 32 36 35 31 27 22 24 30 32 31 30 29
13 14 15 16 15 15 17 20 20 20 19 17 16 15 15 14 14 13 12 11 10 11 11 10 10 10 10 10 9 8 8 8 9 9 10 12 13 13 14 14 15 15 16 17 17 17 17 17 16 15 14 13 12 12 11 9 9 9 11 13 15 16 19 21 22 24 25 24 25 28 28 28 29 33 34 31 26 24 22 23 27 30 31 31 29
14 15 16 16 16 15 16 19 20 19 19 17 15 14 14 14 14 13 12 12 11 12 12 11 11 11 11 10 9 9 8 8 9 9 11 13 13 13 14 14 15 16 16 16 17 17 17 17 16 15 14 13 13 12 11 9 8 9 10 13 15 15 18 20 21 23 25 24 25 28 30 30 31 32 32 29 24 22 22 23 27 28 29 29 29
15 16 16 16 16 16 17 19 19 19 19 17 15 14 14 15 15 14 13 12 12 13 13 12 11 12 11 10 10 9 9 9 10 10 12 13 14 14 13 13 15 16 15 15 15 15 16 15 15 15 13 12 11 10 11 11 9 8 11 14 15 15 16 18 20 21 23 24 25 28 31 32 30 31 32 30 27 25 23 23 27 30 31 30 28
15 16 16 16 16 16 17 18 19 19 19 17 15 15 15 16 15 14 13 13 14 14 14 13 12 12 12 11 10 10 11 11 11 12 13 14 14 14 13 14 15 15 14 14 14 14 14 14 14 13 11 10 10 10 12 12 9 8 12 14 14 14 14 15 18 20 21 23 26 28 31 31 30 31 31 29 29 30 27 23 24 28 32 33 28
15 16 16 17 17 17 17 19 20 20 19 17 16 16 17 17 15 13 13 13 15 15 14 13 13 13 12 11 11 12 12 12 12 13 14 14 14 14 14 15 15 14 12 13 13 13 13 13 12 12 11 10 10 11 13 12 9 9 12 14 14 13 13 13 15 18 19 21 24 29 30 29 28 30 29 28 30 32 30 28 27 25 28 34 35
14 16 17 17 18 19 20 21 21 21 20 18 18 18 18 17 15 14 13 14 15 14 14 13 13 13 12 11 12 12 12 13 13 14 14 15 14 14 14 15 14 12 12 13 13 13 13 12 11 10 10 11 10 10 12 11 9 10 12 12 13 12 12 12 13 15 17 18 21 26 29 27 27 29 28 28 31 32 30 31 30 27 26 31 38
14 15 16 16 17 19 21 22 22 22 20 19 19 19 18 17 15 14 15 16 15 14 14 13 13 12 12 12 12 12 13 13 14 14 14 13 13 13 13 14 13 12 12 13 13 13 13 11 11 11 11 11 9 9 11 11 10 10 10 11 12 11 11 12 12 13 17 19 20 22 26 27 27 27 26 27 31 32 30 30 30 29 26 27 33
12 14 15 15 16 19 21 22 22 22 21 20 20 19 18 17 16 16 16 16 15 14 14 14 13 12 12 12 12 12 13 13 13 13 13 12 12 12 12 12 12 12 13 13 13 14 13 12 11 11 12 12 10 10 11 11 11 10 10 10 11 11 11 12 11 13 17 21 21 21 23 26 28 28 27 30 34 35 32 30 29 29 28 27 29
11 12 14 16 18 20 21 21 21 21 21 20 20 20 18 17 17 17 17 16 15 15 14 14 13 12 12 12 12 12 12 13 13 13 13 12 12 12 12 11 11 12 13 13 13 14 13 13 13 13 13 12 10 10 10 11 11 11 10 10 12 12 12 12 12 14 18 21 22 22 23 24 26 28 30 32 36 37 34 30 29 30 30 28 29
9 12 15 17 19 20 21 22 21 21 22 21 20 20 19 18 18 18 17 16 15 15 15 14 13 12 11 11 11 11 12 13 13 12 12 11 11 12 12 11 11 13 13 13 13 14 13 13 16 18 18 17 14 11 10 11 11 11 11 12 13 13 13 13 13 15 20 22 21 22 22 21 23 26 30 34 36 37 34 30 29 31 31 29 29
11 13 16 18 18 19 22 24 23 22 22 21 20 21 20 19 19 18 17 16 16 15 15 13 12 12 11 11 10 11 12 12 12 12 12 12 11 11 12 11 11 14 15 12 13 15 16 15 15 17 19 21 19 16 11 9 10 11 12 14 14 14 15 14 13 16 22 24 22 22 23 22 23 26 30 34 36 36 36 33 30 31 32 29 26
11 14 16 18 18 20 23 24 22 21 21 21 22 22 21 20 20 19 17 17 17 16 14 13 12 12 11 10 10 10 11 11 11 12 12 10 8 9 11 10 10 12 13 12 13 15 17 19 19 20 20 21 21 18 12 9 10 11 12 14 15 15 16 16 14 18 23 25 23 23 24 24 25 26 28 31 33 35 37 35 32 32 32 29 25
11 13 15 17 18 19 20 20 19 20 22 22 22 23 22 21 21 20 19 18 18 16 14 13 12 11 10 9 9 10 11 10 11 11 9 6 5 7 9 9 9 10 9 9 10 11 14 18 21 21 21 21 21 19 13 11 11 10 11 14 15 15 16 17 15 17 22 24 23 24 25 24 23 23 26 29 32 34 35 33 34 35 35 34 28
11 13 14 16 17 17 18 18 20 22 22 20 20 21 21 21 20 20 20 18 17 15 14 13 12 9 8 9 9 10 10 10 10 10 7 3 4 7 8 8 8 8 6 7 8 8 10 15 18 19 20 21 21 19 15 13 12 10 10 13 15 15 16 16 16 17 20 21 22 22 22 22 21 22 25 28 31 33 33 33 37 39 40 40 29
10 12 13 14 15 16 18 19 22 23 19 16 17 18 18 18 18 20 20 18 16 15 14 11 9 6 6 7 8 9 10 9 10 10 7 4 4 8 10 9 8 6 5 6 7 7 9 12 15 17 18 19 22 21 16 13 12 10 9 11 12 13 15 15 17 17 18 20 20 21 20 19 20 22 23 25 28 32 34 35 38 41 42 42 32
10 12 13 13 12 13 17 20 20 18 14 13 15 15 15 15 18 20 19 17 15 13 10 8 7 5 5 7 8 8 9 8 8 8 7 5 6 9 10 10 8 6 6 6 7 8 9 11 13 15 15 18 21 18 12 11 11 10 9 10 11 13 15 15 16 16 17 19 19 19 19 18 18 19 20 21 25 31 35 36 39 41 40 40 38
10 11 13 12 11 11 13 15 14 11 10 12 14 13 13 15 17 18 16 13 12 11 9 7 6 5 5 6 7 7 7 7 7 7 7 7 8 9 10 8 8 8 8 7 7 7 9 11 12 13 15 19 19 13 9 10 11 11 11 10 10 12 15 16 16 16 18 18 17 18 18 16 15 17 16 17 21 26 32 35 37 39 38 36 38
8 9 10 10 9 8 7 7 7 7 7 10 12 12 13 16 18 16 13 12 12 11 9 7 6 5 5 5 6 5 4 5 5 6 7 7 8 9 10 9 9 10 9 9 8 7 9 12 12 10 13 17 17 11 9 9 9 12 13 11 10 11 13 14 16 17 17 16 15 17 15 12 12 14 14 15 17 21 27 32 34 35 35 35 35
8 7 7 6 5 5 5 5 5 5 6 8 10 11 13 16 16 14 13 13 12 11 9 8 6 5 4 3 4 3 3 3 4 6 7 7 8 9 9 9 9 11 10 10 9 8 9 11 11 10 12 15 13 10 8 9 11 13 13 11 10 10 11 13 15 15 15 15 15 15 12 9 9 12 13 14 15 17 21 27 31 31 32 33 34
7 7 5 3 3 3 5 5 5 5 6 7 8 10 12 12 12 11 12 12 11 10 8 7 5 4 4 3 1 1 3 4 5 6 7 8 8 9 10 10 11 12 11 10 10 9 9 10 9 10 12 14 11 7 7 11 16 16 14 12 11 9 10 13 14 13 14 15 14 13 10 9 9 11 13 15 16 18 20 23 27 29 31 32 32
7 6 4 3 3 3 3 2 2 1 2 4 5 7 8 8 8 9 9 10 9 8 7 5 4 4 4 3 2 2 3 5 6 6 8 10 8 8 10 12 12 11 9 9 10 9 8 9 9 9 11 13 10 8 10 15 19 18 16 14 11 9 10 11 13 14 15 15 12 9 7 8 10 11 13 16 18 19 21 22 23 26 29 31 32
7 7 5 4 3 2 3 3 3 2 1 1 2 3 4 4 5 5 7 8 8 7 4 3 3 5 5 5 5 5 6 6 7 8 9 9 8 9 11 12 11 10 10 10 10 9 7 7 8 8 9 9 9 10 13 17 18 16 14 11 10 10 10 10 11 13 14 13 11 8 8 9 10 11 13 15 17 19 21 21 21 24 26 27 29
8 7 7 7 6 5 5 4 4 3 2 1 1 1 3 3 3 4 6 7 8 7 3 3 5 6 7 7 6 7 7 6 8 9 8 6 7 10 13 11 8 9 10 9 7 6 4 4 4 4 6 7 8 10 14 16 15 11 7 6 8 10 9 9 10 11 10 10 10 9 11 11 12 12 13 14 15 17 18 20 21 22 23 24 24
7 7 7 7 6 6 5 4 4 3 2 2 2 2 2 3 3 4 5 6 7 7 4 6 7 6 6 6 8 9 8 7 7 7 7 6 4 5 7 6 5 6 5 3 1 1 2 3 4 3 4 7 9 11 12 12 10 6 5 8 10 10 8 7 7 7 7 8 10 11 11 12 12 12 13 14 15 16 17 18 20 20 21 23 23
Wind_Direction
168 174 183 190 197 200 203 204 199 195 188 185 187 190 196 201 204 206 205 215 224 230 235 242 265 283 291 290 293 302 308 319 321 320 328 318 305 329 347 350 345 339 331 288 266 268 259 257 259 260 253 245 246 252 258 261 260 257 256 253 250 250 250 251 251 249 248 246 246 245 242 243 246 246 244 244 248 250 248 244 241 240 238 234 231
173 183 191 195 197 196 199 199 196 196 192 192 192 191 197 203 210 214 213 218 232 250 247 253 273 280 278 275 290 313 316 322 325 323 326 325 321 324 326 325 330 329 319 292 276 277 273 267 265 266 261 254 252 253 256 259 256 252 254 257 254 252 250 250 245 233 235 241 242 242 241 244 245 242 240 240 242 244 244 242 238 238 238 235 232
191 196 192 191 192 191 194 196 196 194 190 190 191 195 198 198 205 212 216 222 247 254 243 256 269 271 291 284 285 316 320 321 326 328 331 335 334 335 334 326 322 320 317 310 295 282 276 272 267 264 260 253 251 252 251 250 249 245 240 241 249 254 254 255 244 229 230 236 237 239 242 248 244 234 236 240 240 239 241 239 236 237 237 235 235
199 200 192 184 183 185 189 192 191 187 185 186 186 192 192 183 180 181 192 185 174 239 233 311 285 273 308 305 313 331 334 341 345 344 345 345 339 335 336 330 322 316 314 310 300 290 280 272 268 264 258 256 256 257 255 251 248 245 239 236 241 248 251 253 243 233 233 229 228 236 233 247 249 230 230 233 233 236 239 237 234 235 236 234 234
198 199 190 179 178 180 182 185 184 182 183 183 178 174 167 155 149 150 142 121 118 69 32 7 345 348 340 337 346 350 350 355 358 353 348 346 338 332 333 330 324 316 310 305 297 290 283 279 277 268 260 258 258 258 258 258 254 250 247 245 245 247 252 256 250 241 238 232 230 231 223 235 246 243 243 233 227 231 237 236 233 235 235 232 232
196 196 188 180 179 175 176 181 180 179 179 174 163 154 147 139 133 134 128 116 102 68 37 14 4 3 359 356 354 352 353 356 356 349 348 348 340 335 335 335 334 326 314 306 300 294 286 282 278 272 265 260 258 258 259 261 261 255 252 253 254 255 258 261 260 257 253 246 239 237 240 246 247 240 248 247 233 233 237 237 236 237 236 231 229
194 195 189 182 178 175 177 179 180 179 170 158 153 149 142 138 136 133 126 115 99 79 52 26 17 13 10 5 358 358 355 357 356 350 350 350 345 343 341 340 343 339 329 320 315 308 299 290 283 278 273 271 268 263 261 263 264 260 256 259 264 266 263 261 262 262 261 255 246 243 245 248 251 248 242 257 254 242 242 245 244 242 240 237 232
191 192 189 184 181 179 178 177 180 175 161 157 159 152 146 142 138 134 127 117 107 91 75 62 58 58 44 32 25 20 11 2 356 356 358 354 350 350 347 344 347 348 344 339 335 328 317 306 296 288 282 287 286 274 272 270 264 263 262 264 268 268 264 262 265 263 256 256 251 247 249 249 249 249 247 250 258 260 259 254 250 246 246 247 242
194 192 189 186 183 182 180 177 176 168 159 162 159 151 146 142 137 134 129 121 117 113 113 112 103 94 76 56 42 27 16 1 351 355 1 357 353 352 349 346 347 349 349 348 347 344 337 323 310 301 292 294 293 286 284 278 277 281 278 276 272 266 260 258 262 262 257 256 253 251 257 257 251 246 243 242 244 250 259 258 251 248 247 246 244
197 195 192 189 187 187 183 176 171 166 161 158 153 150 147 143 143 142 139 139 143 142 135 122 101 87 74 54 36 18 7 355 350 355 357 354 350 347 345 343 342 343 344 347 349 348 346 338 327 317 305 297 293 293 291 291 299 298 289 287 281 271 265 257 257 261 259 255 252 251 254 255 254 247 235 233 237 242 249 257 256 252 250 243 237
195 196 195 194 190 184 180 175 170 164 159 155 153 152 149 148 154 155 157 161 158 152 138 112 85 70 56 33 20 10 359 351 349 349 349 349 346 343 340 335 335 335 337 340 346 349 345 339 335 325 314 306 300 299 294 297 304 296 288 291 284 273 270 264 258 259 257 254 252 246 242 242 246 248 239 231 233 239 247 256 256 252 250 246 238
192 192 194 193 185 178 180 177 168 161 158 160 159 156 156 161 167 168 170 168 161 157 143 106 70 57 39 18 11 4 355 350 347 345 349 347 342 341 336 328 328 327 331 336 342 348 345 341 340 331 319 309 302 297 292 295 296 288 284 284 277 269 269 267 263 258 252 249 247 243 242 241 243 250 254 249 239 239 246 258 265 261 253 247 242
191 188 190 190 184 181 183 177 167 164 163 165 166 164 167 173 178 177 171 167 163 161 159 144 26 35 21 5 2 358 351 346 343 342 345 343 337 335 331 325 323 322 325 330 333 341 342 340 341 335 325 315 305 298 295 294 292 288 284 278 271 265 265 266 264 259 252 246 244 245 245 245 247 250 252 251 242 237 241 253 263 264 259 256 255
192 187 186 189 189 186 182 174 169 169 168 170 171 169 173 179 184 183 173 169 169 171 188 269 316 350 355 352 352 350 345 340 338 339 340 338 331 325 324 318 314 317 320 321 324 331 335 335 335 332 326 319 311 304 300 297 293 291 289 283 277 271 271 273 270 264 258 253 251 250 250 248 247 248 247 247 244 239 239 242 254 262 258 260 269
189 187 187 187 188 185 179 175 173 172 173 176 173 170 177 184 186 185 179 178 183 189 199 237 279 300 320 328 338 340 340 337 329 333 332 328 323 315 313 311 310 313 313 311 314 317 322 326 326 327 325 319 315 310 307 306 302 299 295 291 288 282 279 278 274 269 267 267 264 258 258 255 250 249 249 250 249 244 240 239 241 254 257 251 256
187 186 186 184 185 184 180 177 177 177 178 179 174 173 182 188 188 187 184 187 193 195 196 212 248 264 281 295 322 324 322 321 312 320 325 320 317 311 306 307 307 308 307 303 301 301 305 311 315 320 321 319 318 315 313 313 310 306 304 297 292 293 292 289 283 274 272 274 272 266 261 258 257 255 253 254 252 246 241 240 237 235 247 251 247
185 183 182 182 183 184 182 180 181 182 182 182 176 177 186 190 188 186 186 193 198 198 199 206 230 247 258 268 293 301 295 298 302 317 325 321 319 315 309 306 304 304 304 298 295 295 295 297 304 312 316 318 318 316 313 312 310 309 308 302 298 299 297 297 296 286 277 272 271 272 266 260 262 260 254 253 253 250 249 247 241 237 241 247 247
181 180 180 181 182 183 183 183 184 184 184 182 178 180 188 191 188 187 190 199 203 205 212 222 238 252 251 246 255 271 272 274 285 306 319 324 326 326 318 310 304 302 300 297 296 295 294 295 300 307 313 315 315 314 311 308 307 307 307 306 309 310 302 298 299 294 287 280 274 275 270 263 262 260 254 251 251 252 253 250 244 238 239 238 234
179 180 180 181 180 182 184 184 184 184 183 181 179 182 189 190 187 189 195 205 212 213 221 237 249 249 243 238 239 243 247 254 271 293 308 317 324 328 325 314 304 299 297 298 298 297 296 297 299 304 309 312 313 312 309 306 304 304 307 312 317 318 311 304 303 301 295 287 279 278 275 268 264 260 255 253 251 249 249 249 243 238 238 238 234
180 181 181 180 182 184 186 186 184 182 181 181 182 186 192 190 183 186 196 206 217 221 229 245 251 246 239 233 230 231 236 244 260 279 293 303 311 318 323 319 309 301 297 297 297 296 295 295 296 300 303 306 311 311 308 305 299 297 306 310 313 315 314 311 308 305 302 294 287 285 281 274 271 265 258 256 253 249 247 246 241 237 237 237 232
184 184 182 180 182 184 186 186 183 180 181 185 186 190 195 193 187 192 203 213 223 228 235 247 250 244 240 237 234 234 237 246 260 273 282 288 293 300 312 317 312 307 302 298 296 294 292 291 291 292 294 299 306 309 308 305 300 300 308 309 310 315 316 316 313 309 305 300 295 290 285 279 276 270 262 259 254 248 245 244 242 240 240 238 232
187 188 186 180 180 183 186 187 183 180 184 188 187 189 194 196 200 208 217 228 236 234 234 242 245 241 238 237 238 239 242 250 262 271 278 283 289 295 301 306 307 306 303 298 295 293 291 289 287 287 288 291 299 304 305 304 303 306 311 313 314 315 314 315 316 314 309 304 300 295 289 285 279 271 265 262 257 249 245 245 244 240 238 239 234
189 190 188 180 179 182 183 183 179 178 184 186 184 189 195 199 207 217 225 235 243 239 234 237 239 240 237 235 237 241 246 252 261 270 279 287 294 299 299 300 302 303 301 295 291 289 288 287 286 285 283 283 291 299 304 305 305 309 313 312 311 310 311 315 317 315 312 308 305 300 294 291 285 275 267 263 256 250 246 244 244 239 235 237 233
189 191 186 178 177 177 176 175 172 173 180 182 183 189 194 199 211 222 226 231 238 240 239 239 240 241 237 235 238 241 246 252 260 270 279 287 299 308 309 305 303 302 300 295 291 287 284 282 282 283 281 282 287 294 302 306 308 312 312 309 307 305 308 316 318 316 315 312 308 304 300 297 293 283 272 262 255 251 247 243 244 242 238 238 235
185 185 180 176 175 171 168 168 168 171 177 179 181 185 189 196 212 225 230 228 230 236 241 243 246 246 240 238 242 244 248 254 260 271 281 292 305 313 312 309 305 301 299 295 292 289 283 277 275 278 279 281 284 288 295 304 309 311 309 307 307 305 310 319 321 317 316 316 313 309 305 302 298 292 280 266 255 253 251 246 244 243 238 238 236
181 179 176 175 174 167 163 164 168 173 177 179 179 182 188 195 209 224 230 227 228 234 241 246 251 252 245 244 247 247 251 257 262 272 283 292 301 305 307 309 309 306 301 297 293 291 286 279 273 275 278 278 278 280 286 295 303 308 310 311 310 310 316 323 323 319 318 319 320 318 312 307 301 299 294 280 261 254 255 252 246 243 239 237 237
179 177 176 175 173 166 161 165 171 175 178 179 180 184 188 193 206 219 222 222 226 231 236 243 252 254 250 250 252 250 254 262 268 274 282 289 294 301 308 310 308 305 302 300 296 292 289 283 277 277 279 277 274 275 280 285 294 305 312 315 316 317 322 326 325 323 324 325 327 325 318 313 307 307 310 299 274 256 253 252 249 245 239 236 238
181 180 180 177 174 167 163 166 171 174 176 177 181 184 187 194 206 215 218 220 224 227 232 239 247 250 250 253 256 253 256 263 268 274 282 285 291 301 307 305 303 302 301 300 298 294 290 287 284 282 280 278 276 276 276 276 288 304 313 318 321 322 324 327 327 329 332 332 332 331 327 321 316 316 322 322 301 276 264 259 256 251 241 234 234
186 185 184 181 175 169 165 166 169 172 173 174 178 180 185 197 208 212 216 221 222 224 230 237 242 245 249 255 255 252 256 262 267 275 282 285 294 303 302 300 302 301 300 299 298 296 291 286 286 286 281 278 280 276 271 274 289 306 316 321 322 321 323 328 330 332 336 337 336 338 337 332 327 327 334 341 332 310 293 279 268 258 244 233 231
192 189 188 184 176 170 165 164 168 171 171 173 175 178 189 204 211 212 216 220 221 223 227 234 239 243 250 255 252 250 256 263 270 278 283 289 301 304 298 300 305 302 299 300 299 296 293 290 291 292 287 282 281 268 261 274 292 309 321 323 321 318 319 328 334 334 336 338 338 340 343 340 337 338 343 347 343 333 320 297 279 266 250 237 234
195 190 187 184 178 172 165 163 168 170 170 174 177 183 199 211 215 217 218 219 220 222 225 231 238 243 249 254 253 252 258 266 273 279 282 292 302 301 299 304 306 302 300 300 299 297 296 296 296 297 293 288 282 267 265 278 291 306 321 323 318 315 315 321 334 339 338 340 340 341 345 346 345 344 344 343 338 335 332 318 298 280 259 243 233
196 191 188 184 179 175 169 166 169 170 172 176 180 190 204 212 215 219 222 222 220 221 226 231 236 243 249 253 255 256 261 270 277 280 283 293 301 299 302 307 304 302 302 301 300 300 299 300 300 301 300 295 287 276 276 281 285 298 317 322 314 310 310 312 325 335 338 341 343 344 344 343 345 347 345 339 335 332 330 324 315 300 274 252 238
198 192 187 185 182 177 171 167 168 171 175 180 187 197 206 210 212 216 221 223 221 222 227 232 237 245 250 255 259 260 266 272 278 282 284 292 300 302 307 310 306 302 302 301 301 301 300 300 299 299 300 300 296 290 287 285 285 296 315 322 313 303 303 308 314 323 331 335 339 345 345 339 338 345 345 341 337 332 327 323 318 309 289 263 247
202 195 189 189 183 173 167 165 167 173 179 186 195 202 206 209 211 215 219 221 221 223 228 232 239 246 250 256 261 264 270 274 278 282 283 288 298 303 307 311 309 305 303 301 301 303 301 299 298 298 300 302 302 300 297 290 289 300 313 319 312 299 296 303 306 314 327 332 333 338 342 339 337 340 342 341 340 334 326 320 314 306 291 270 255
204 197 192 189 176 165 161 162 168 175 182 190 198 203 207 209 211 215 217 218 220 224 227 232 239 247 251 257 264 269 274 276 278 279 279 283 293 299 304 310 310 309 307 304 302 302 298 294 293 292 295 302 309 311 305 292 288 298 309 311 305 297 295 299 298 306 326 335 333 327 328 333 336 338 339 339 339 337 329 319 314 307 294 276 259
203 197 191 180 169 161 156 154 162 174 184 193 200 205 209 210 211 215 217 217 220 224 227 231 239 247 254 260 266 273 277 278 278 276 275 281 290 296 301 304 304 307 310 307 305 304 303 302 302 300 296 295 299 305 305 296 289 293 297 299 300 296 296 298 297 303 320 333 337 330 324 325 329 333 337 337 338 339 332 322 317 314 304 286 265
195 191 182 171 165 159 152 151 161 177 189 197 202 206 208 211 213 215 217 218 220 222 225 231 239 249 258 263 267 275 280 280 279 276 275 280 287 293 298 302 306 309 307 308 313 317 320 318 313 310 307 301 297 299 302 296 291 291 290 292 298 298 297 298 296 300 313 324 331 332 329 323 322 328 334 335 337 338 332 325 323 320 312 296 273
182 181 172 165 162 157 155 162 173 184 193 201 205 205 206 210 214 217 219 220 220 222 225 232 242 251 258 263 266 272 278 279 277 274 275 281 287 295 302 308 314 313 309 317 328 328 324 320 314 307 304 302 300 299 300 296 288 289 288 287 293 297 298 301 298 297 308 315 319 324 329 328 326 330 336 337 338 338 333 328 328 324 317 305 280
172 173 165 162 160 157 162 172 181 189 197 202 204 205 206 210 214 219 222 221 220 222 224 232 245 253 259 264 266 270 275 276 274 273 276 283 289 297 302 304 309 311 316 330 335 326 321 320 316 309 304 301 297 291 293 298 289 286 286 282 287 296 300 302 301 299 306 311 312 316 324 331 333 335 339 341 341 341 337 332 332 329 321 312 293
165 165 160 159 157 158 168 179 187 197 204 204 202 204 207 211 214 219 223 222 220 220 223 233 246 253 257 262 264 268 271 272 276 279 279 279 282 285 287 287 287 291 303 319 320 317 319 318 315 310 304 300 294 289 294 300 288 283 286 281 280 290 299 303 300 296 301 307 308 311 320 331 338 338 338 340 341 343 341 338 340 335 323 317 307
159 157 157 161 164 170 178 187 197 207 209 204 200 201 206 211 215 220 222 220 219 223 229 237 243 245 253 259 262 266 268 271 279 280 268 243 257 269 267 267 271 271 277 295 301 306 312 312 312 310 304 300 297 292 292 292 283 282 289 285 280 283 293 301 298 291 295 302 306 309 314 326 337 338 337 339 343 346 346 347 347 341 331 331 325
154 155 160 167 174 182 190 198 207 212 209 200 196 199 203 209 216 222 221 220 223 229 230 228 224 227 248 261 265 268 270 266 262 255 242 224 237 254 260 262 261 257 263 281 292 301 305 306 309 309 304 303 300 293 284 280 280 283 287 286 286 292 297 299 295 292 295 302 308 310 311 320 333 336 337 343 350 353 353 353 352 347 344 349 354
158 164 171 177 181 187 198 209 214 211 201 192 195 199 201 207 218 224 223 220 219 214 202 194 200 216 245 263 269 270 269 262 249 241 239 239 241 250 259 262 257 260 273 278 286 302 308 305 305 306 309 311 308 300 293 293 295 295 291 285 290 303 307 301 292 289 294 300 309 313 312 317 327 333 340 352 358 359 359 358 357 356 355 360 10
176 179 180 186 192 194 204 213 211 197 187 192 201 204 203 211 222 225 219 206 194 183 176 182 206 225 243 262 269 266 262 259 251 238 233 238 247 255 259 256 256 269 277 277 282 296 302 300 300 307 316 317 311 307 310 313 312 311 307 297 294 302 307 305 298 296 297 300 306 312 316 321 328 335 347 360 4 5 6 4 2 3 5 7 15
170 170 172 188 200 200 202 200 185 176 185 199 207 209 209 217 225 222 207 187 173 171 179 194 213 229 242 255 260 260 263 267 259 241 234 241 255 260 256 255 266 276 278 277 282 288 289 293 300 310 316 312 309 312 326 331 326 321 315 306 297 298 305 309 308 307 306 306 310 318 324 330 336 344 356 5 8 11 14 12 7 6 11 15 19
140 135 145 173 191 195 198 194 188 200 213 215 218 222 226 230 226 211 193 180 172 171 182 196 213 228 228 229 243 263 289 289 266 248 244 249 257 259 256 254 265 276 278 276 277 277 278 288 301 310 308 307 313 328 339 337 334 329 320 309 300 301 307 312 314 316 316 319 327 336 343 352 357 1 8 11 13 15 15 14 12 10 13 18 24
124 119 125 147 176 208 222 229 232 228 229 233 235 237 241 241 229 206 184 171 168 173 184 196 206 202 184 173 180 296 305 288 270 261 266 266 258 256 261 263 266 273 276 276 278 281 284 292 305 310 306 308 320 344 348 337 337 336 329 321 319 316 313 316 321 322 320 325 337 344 348 1 10 5 3 9 18 22 18 14 13 15 18 20 25
113 121 133 149 179 214 236 256 256 219 231 255 255 250 247 240 229 214 186 166 167 173 179 188 187 174 169 167 173 227 263 270 268 270 280 278 262 250 263 274 276 275 275 279 284 289 295 299 305 311 313 314 328 358 356 341 336 331 324 324 327 320 312 317 321 318 318 328 343 347 343 357 5 356 352 359 9 14 14 14 14 16 21 24 26
120 128 131 124 115 97 75 69 73 74 60 279 259 260 245 219 209 198 172 162 158 150 147 175 181 179 192 208 230 246 252 265 276 276 275 273 263 258 267 276 276 268 267 275 283 288 300 309 313 326 337 337 345 354 345 335 332 326 318 322 327 321 316 318 317 316 321 329 341 354 3 6 5 359 354 354 358 2 6 9 13 16 21 25 25
119 117 109 96 85 81 83 90 93 86 83 115 135 219 235 216 194 164 153 152 143 133 149 227 218 217 226 233 255 270 265 267 281 284 277 263 256 261 267 268 262 260 264 268 270 273 290 313 330 345 355 359 356 344 334 335 341 341 337 344 344 333 325 321 319 320 324 330 341 5 18 13 6 6 3 355 354 359 2 3 5 10 15 19 20
117 110 102 97 93 93 98 100 101 102 108 123 138 164 191 192 173 153 154 156 147 147 191 232 233 238 246 254 274 283 276 266 274 280 276 267 257 265 273 264 247 255 274 283 275 38 41 54 67 52 4 357 357 347 339 342 350 3 25 26 10 350 330 323 336 349 353 356 6 18 22 15 10 11 10 4 -0 3 5 3 3 5 9 13 14